Change the Weather History Date:

Tuesday, January 2, 2007

  Actual Average Record
Temperature  
Mean Temperature 34 °F 27 °F  
Max Temperature 46 °F 34 °F 68 °F (2004)
Min Temperature 23 °F 19 °F -11 °F (1979)
Degree Days  
Heating Degree Days 30 38  
Month to date heating degree days 76  
Since 1 July heating degree days 2267  
Cooling Degree Days 0 0  
Month to date cooling degree days 0  
Year to date cooling degree days 0  
Moisture  
Dew Point 25 °F    
Average Humidity 74    
Maximum Humidity 96    
Minimum Humidity 46    
Precipitation  
Precipitation 0.00 in 0.05 in 1.32 in (1951)
Month to date precipitation 0.11  
Year to date precipitation 0.11  
Sea Level Pressure  
Sea Level Pressure 30.34 in    
Wind  
Wind Speed 5 mph (SSW)    
Max Wind Speed 13 mph    
Max Gust Speed -    
Visibility 10 miles    
Events      
T = Trace of Precipitation, MM = Missing Value Source: NWS Daily Summary

Daily Weather History Graph

Daily Weather History Graph

Search for Another Location

Airport or City:

Trip Planner

Search our weather history database for the weather conditions in past years. The results will help you decide how hot, cold, wet, or windy it might be!

Date:

Astronomy

Jan. 02, 2007 Rise Set
Actual Time 7:26 AM CST 4:51 PM CST
Civil Twilight 6:56 AM CST 5:21 PM CST
Nautical Twilight 6:22 AM CST 5:55 PM CST
Astronomical Twilight 5:49 AM CST 6:28 PM CST
Moon 3:46 PM CST (1/2) 6:58 AM CST (1/2)
Length of Visible Light 10h 25m
Length of Day
9h 24m
Waxing Gibbous, 99% of the Moon is Illuminated
Jan 2
Waxing Gibbous
Jan 3
Full
Jan 11
Last Quarter
Jan 18
New
Jan 25
First Quarter

Hourly Weather History & Observations

Time (CST) Temp. Windchill Dew Point Humidity Pressure Visibility Wind Dir Wind Speed Gust Speed Precip Events Conditions
12:54 AM 28.9 °F 25.2 °F 24.1 °F 82% 30.38 in 10.0 mi NW 3.5 mph - N/A   Clear
1:54 AM 25.0 °F - 23.0 °F 92% 30.39 in 10.0 mi Calm Calm - N/A   Clear
2:54 AM 25.0 °F - 23.0 °F 92% 30.40 in 10.0 mi Calm Calm - N/A   Clear
3:54 AM 25.0 °F - 21.9 °F 88% 30.41 in 10.0 mi Calm Calm - N/A   Clear
4:54 AM 24.1 °F - 23.0 °F 96% 30.41 in 10.0 mi Calm Calm - N/A   Clear
5:54 AM 24.8 °F 20.5 °F 23.0 °F 93% 30.39 in 10.0 mi South 3.5 mph - N/A   Clear
6:54 AM 23.0 °F - 19.9 °F 88% 30.42 in 8.0 mi Calm Calm - N/A   Clear
7:54 AM 23.0 °F 18.4 °F 21.9 °F 96% 30.42 in 7.0 mi South 3.5 mph - N/A   Clear
8:54 AM 27.0 °F 21.6 °F 25.0 °F 92% 30.42 in 9.0 mi SSW 4.6 mph - N/A   Clear
9:54 AM 33.1 °F 25.5 °F 28.9 °F 85% 30.43 in 10.0 mi SSW 9.2 mph - N/A   Clear
10:54 AM 37.0 °F 29.3 °F 28.0 °F 70% 30.40 in 10.0 mi SW 11.5 mph - N/A   Clear
11:54 AM 37.9 °F 31.5 °F 28.0 °F 68% 30.37 in 10.0 mi South 9.2 mph - N/A   Clear
12:54 PM 42.1 °F 35.2 °F 28.9 °F 60% 30.33 in 10.0 mi SSW 12.7 mph - N/A   Clear
1:54 PM 43.0 °F 37.2 °F 28.9 °F 58% 30.32 in 10.0 mi South 10.4 mph - N/A   Clear
2:54 PM 46.0 °F 40.6 °F 26.1 °F 46% 30.31 in 10.0 mi SSW 11.5 mph - N/A   Clear
3:54 PM 44.1 °F 39.0 °F 27.0 °F 51% 30.31 in 10.0 mi South 9.2 mph - N/A   Clear
4:54 PM 42.1 °F 38.4 °F 28.0 °F 58% 30.29 in 10.0 mi South 5.8 mph - N/A   Clear
5:54 PM 39.9 °F 37.8 °F 26.1 °F 58% 30.28 in 10.0 mi South 3.5 mph - N/A   Clear
6:54 PM 37.0 °F 31.0 °F 26.1 °F 65% 30.26 in 10.0 mi South 8.1 mph - N/A   Clear
7:54 PM 37.9 °F 31.5 °F 25.0 °F 60% 30.25 in 10.0 mi South 9.2 mph - N/A   Clear
8:54 PM 35.1 °F 31.0 °F 25.0 °F 67% 30.25 in 10.0 mi South 4.6 mph - N/A   Clear
9:54 PM 32.0 °F 26.4 °F 24.1 °F 73% 30.24 in 10.0 mi South 5.8 mph - N/A   Clear
10:54 PM 32.0 °F 24.2 °F 24.1 °F 73% 30.23 in 10.0 mi South 9.2 mph - N/A   Clear
11:54 PM 34.0 °F 25.0 °F 24.1 °F 67% 30.21 in 10.0 mi SSW 12.7 mph - N/A   Clear